Regional Weather Roundup
Issued by NWS Jackson, KY

Home | Current Version | Previous Version | Text Only | Print | Product List | Glossary On
Versions: 1 2 3 4 5 6 7 8 9 10 11 12 13 14 15 16 17 18 19 20 21 22 23 24 25 26 27 28 29 30 31 32 33 34 35 36 37 38 39 40 41 42 43 44 45 46 47 48 49 50
000
ASUS43 KJKL 030810
RWRJKL

EAST KENTUCKY HOURLY WEATHER ROUNDUP
NATIONAL WEATHER SERVICE JACKSON KY
400 AM EDT FRI JUL 03 2015

NOTE: "FAIR" INDICATES FEW OR NO CLOUDS BELOW 12,000 FEET WITH
NO SIGNIFICANT WEATHER AND/OR OBSTRUCTIONS TO VISIBILITY.

* THESE REPORTS ARE NOT UNDER NWS QUALITY CONTROL AND MAY NOT
  REPORT WEATHER SUCH AS PRECIPITATION AND FOG.

KYZ079-080-083-085-087-088-110-112-115-119-120-030900
...EASTERN KENTUCKY...

CITY           SKY/WX    TMP DP  RH WIND       PRES   REMARKS
JACKSON        CLOUDY    68  66  93 CALM      29.88F
LONDON         CLOUDY    71  66  84 CALM      29.88S
SOMERSET*      CLOUDY    70  70 100 SW3       29.88S
MONTICELLO*    CLOUDY    71  71 100 CALM      29.89F
MIDDLESBORO*   CLOUDY    69  69 100 CALM      29.89F
HARLAN APT*      N/A     68  68 100 CALM      29.90F
HAZARD APT*    FOG       68  68 100 CALM      29.88  VSB 1
BLACK MTN*       N/A     63  63 100 SW5         N/A
PIKEVILLE APT* FOG       66  66 100 N3        29.90F VSB 3/4
BIG SANDY*     RAIN      68  68 100 CALM      29.89F VSB 3/4
MOREHEAD APT*  LGT RAIN  68  66  94 NE5       29.90F
$$

KYZ035-036-041-042-044-050-067-078-099-030900
...CENTRAL KENTUCKY...

CITY           SKY/WX    TMP DP  RH WIND       PRES   REMARKS
MT STERLING*   CLOUDY    68  68 100 SE5       29.89F
FLEMING/MASON* CLOUDY    64  64 100 E5        29.89F FOG
DANVILLE*      CLOUDY    68  68 100 SW3       29.88S
RICHMOND*      CLOUDY    70  68  94 CALM      29.86F
LEXINGTON      CLOUDY    70  68  93 E7        29.86F
FRANKFORT      CLOUDY    70  67  90 E6        29.85F
$$

KYZ091>093-OHZ055-061-077-WVZ005-015-034-035-042-030900
...SOUTHERN OHIO/WEST VIRGINIA...

CITY           SKY/WX    TMP DP  RH WIND       PRES   REMARKS
COVINGTON      LGT RAIN  69  65  86 E12       29.89F
COLUMBUS       MOCLDY    62  55  77 NE8       29.93F
DAYTON         PTCLDY    64  55  72 E7        29.95S
WILMINGTON     CLOUDY    63  59  87 NE9       29.91F
HUNTINGTON     CLOUDY    66  65  96 E6        29.88F FOG
CHARLESTON     CLOUDY    65  63  93 NE3       29.90F FOG
PINEVILLE*     CLOUDY    66  66 100 MISG      29.98F FOG
BECKLEY        CLOUDY    64  61  90 SE6       29.97F
BLUEFIELD      CLOUDY    66  62  87 CALM      29.99F
$$

VAZ002-007-008-TNZ017-027-036-066-071-030900
...SOUTHWEST VIRGINIA/EAST TENNESSEE...

CITY           SKY/WX    TMP DP  RH WIND       PRES   REMARKS
WISE*          CLOUDY    66  66 100 S5        29.97S
JONESVILLE*      N/A    N/A N/A N/A MISG        N/A
ABINGDON*      RAIN      68  68 100 S3        29.95F
BRISTOL        LGT RAIN  68  67  96 CALM      29.93S FOG
KNOXVILLE      LGT RAIN  71  69  93 SW6       29.88F
OAK RIDGE      CLOUDY    71  69  93 SW5       29.89F
CROSSVILLE     CLOUDY    70  67  90 W5        29.94S
NASHVILLE      CLOUDY    73  73 100 CALM      29.86S
$$

...KEY TO REMARKS...
VSB - VISIBILITY IN MILES
WCI - WIND CHILL INDEX
HX  - HEAT INDEX

$$


USA.gov is the U.S. government's official web portal to all federal, state and local government web resources and services.